[[{"header":{"parameterUnit":"m.s-1","parameterCategory":1,"la1":30.2991,"la2":30.254,"lo1":-89.0895,"lo2":-89.0444,"dy":0.0017,"dx":0.0017,"nx":28,"ny":28,"refTime":"2025-07-11T03:00:00:Z","depth":0,"parameterNumber":2,"parameterNumberName":"U-component_of_WINDS"},"data":[0,0,0,0,0,0,0,0,0,0,0,0,0,0,0,0,0,0,0,0,0,0,0,0,0,0,0,0,0,0,0,0,0,0,0,0,0,0,0,0,0,0,0,0,0,0,0,0,0,0,0,0,0,0,0,0,0,0,2.2696,2.2696,0,2.2698,2.2698,2.2698,2.2641,2.264,2.2638,2.2637,2.264,2.2642,2.2643,0,0,0,0,0,0,0,0,0,0,0,0,0,2.2645,2.2646,2.2696,2.2696,2.2696,2.2698,2.2698,2.2698,2.2642,2.264,2.2638,2.2636,2.264,2.2641,2.2643,0,0,0,0,0,0,0,0,0,0,0,0,0,2.2659,2.2647,2.2696,2.2668,2.2665,2.2698,2.2698,2.2698,2.2642,2.264,2.2637,2.2635,2.2639,2.2641,2.2644,2.2703,0,0,2.265,2.2651,0,0,0,0,0,0,0,0,2.2658,2.2661,2.2672,2.267,2.2667,2.2667,2.2681,2.27,2.2643,2.2651,2.2637,2.2634,2.2651,2.2652,2.2658,2.2703,2.2703,2.2651,2.2652,2.2653,2.2654,0,0,0,0,0,0,0,2.2657,2.2661,2.2697,2.2672,2.2669,2.2656,2.2655,2.2684,2.2664,2.265,2.2646,2.2647,2.2649,2.2656,2.2657,2.2704,2.2651,2.2653,2.2654,2.2655,2.2801,2.2803,0,0,0,0,0,0,2.266,2.266,2.2697,2.2697,2.2657,2.2659,2.2658,2.2669,2.2663,2.266,2.2649,2.2644,2.2653,2.2655,2.2657,2.2728,2.2653,2.2655,2.2656,2.2798,2.2801,2.2804,0,0,0,0,0,0,2.2659,2.2664,2.2696,2.2677,2.268,2.2662,2.2675,2.2671,2.2677,2.2662,2.2659,2.2659,2.2651,2.2654,2.2693,2.2727,2.2656,2.2658,2.2795,2.2799,2.2803,2.287,0,0,0,0,0,0,2.2658,2.2664,2.2686,2.2678,2.2682,2.2731,2.2677,2.2672,2.2681,2.2675,2.2671,2.2668,2.265,2.269,2.2695,2.2729,2.266,2.2792,2.2797,2.2801,2.2864,2.2875,2.2885,0,0,0,0,0,2.2656,2.2704,2.2687,2.2692,2.2709,2.2733,2.2735,2.2713,2.2684,2.2706,2.2697,2.2668,2.2723,2.2694,2.2699,2.2735,2.279,2.2795,2.2801,2.286,2.2873,2.2884,0,0,0,0,0,0,2.2716,2.2703,2.2684,2.273,2.2734,2.2724,2.2751,2.2727,2.2739,2.2733,2.2705,2.2705,2.2748,2.2745,2.2714,2.2794,2.2751,2.2758,2.2794,2.2807,2.2817,2.2817,2.2662,0,0,0,0,0,2.2735,2.2756,2.2743,2.2786,2.2788,2.277,2.278,2.2762,2.2764,2.2765,2.2759,2.2763,2.2781,2.2793,2.2809,2.2863,2.2863,2.2891,2.2901,2.291,2.2916,2.2947,2.296,2.2822,2.2822,2.2822,0,0,2.2774,2.2769,2.2784,2.2798,2.2798,2.2821,2.2771,2.2797,2.2814,2.2769,2.2806,2.2802,2.2804,2.2851,2.2872,2.285,2.2954,2.2917,2.2924,2.2926,2.2954,2.2967,2.2979,2.2826,2.2826,2.2825,0,0,2.2857,2.2855,2.2891,2.2892,2.2894,2.2881,2.289,2.2884,2.288,2.2916,2.2883,2.2903,2.2935,2.2938,2.2944,2.303,2.3005,2.3036,2.309,2.312,2.3131,2.3141,2.3173,2.3185,2.3043,2.3043,2.3043,0,2.2905,2.2938,2.2912,2.2941,2.2949,2.2909,2.2947,2.2949,2.2956,2.2963,2.2938,2.2978,2.2977,2.3025,2.3047,2.3052,2.3063,2.3037,2.3131,2.3141,2.3149,2.318,2.3192,2.3047,2.3047,2.3046,2.3046,0,2.2998,2.3022,2.3051,2.3059,2.3069,2.3102,2.3083,2.3097,2.3079,2.307,2.3108,2.3105,2.3121,2.313,2.3113,2.3177,2.3164,2.3136,2.3093,2.3167,2.3195,2.3207,2.3053,2.3051,2.305,2.3049,0,0,2.3119,2.3113,2.3124,2.3128,2.3127,2.3145,2.3177,2.3192,2.3205,2.3211,2.3238,2.3267,2.3241,2.3248,2.3231,2.3257,2.3328,2.3226,2.3225,2.3246,2.3401,2.3423,2.3437,2.3311,2.3313,2.3314,2.3402,0,2.3201,2.3254,2.3233,2.3288,2.3311,2.3274,2.3302,2.3305,2.3298,2.3316,2.3308,2.3329,2.3293,2.3297,2.3321,2.3314,2.3359,2.3307,2.3337,2.3338,2.3339,2.3452,2.3475,2.3557,2.3412,2.3414,2.3415,0,2.3303,2.3314,2.3372,2.3369,2.3377,2.3403,2.3416,2.3433,2.3437,2.343,2.3438,2.3416,2.3448,2.3405,2.345,2.3415,2.3426,2.3425,2.3427,2.343,2.3382,2.346,2.3583,2.3596,2.3432,2.3431,2.343,0,2.3387,2.3416,2.3455,2.3459,2.3456,2.3475,2.3475,2.3476,2.3487,2.3498,2.3506,2.3521,2.353,2.3542,2.3525,2.3495,2.3574,2.3528,2.357,2.3571,2.3589,2.3589,2.3718,2.3594,2.3594,2.3594,2.3593,0,2.3482,2.3519,2.3493,2.3518,2.3559,2.3535,2.3577,2.3572,2.3574,2.3598,2.3566,2.3589,2.3564,2.3585,2.3572,2.3613,2.3616,2.3613,2.3609,2.3616,2.3617,2.3624,2.3619,2.3597,2.3596,2.3595,2.3595,0,2.3583,2.3567,2.3608,2.3602,2.3601,2.3632,2.3627,2.365,2.364,2.3671,2.3677,2.3662,2.3686,2.3669,2.3692,2.3684,2.3738,2.3725,2.3737,2.3734,2.3777,2.3774,2.3917,2.3935,2.3798,2.3799,2.38,0,2.3645,2.3674,2.3671,2.3684,2.3686,2.3708,2.3719,2.3696,2.3709,2.3716,2.3739,2.376,2.3775,2.3815,2.3807,2.3825,2.3814,2.3862,2.3816,2.3824,2.3817,2.3816,2.382,2.3872,2.3874,2.3875,2.3876,0,2.3758,2.3749,2.3766,2.3781,2.3795,2.3806,2.3814,2.3827,2.3805,2.3821,2.3845,2.3857,2.3881,2.3903,2.3918,2.3919,2.3895,2.3891,2.3902,2.391,2.3917,2.3916,2.3764,2.3888,2.3887,2.3886,2.3885,2.3885,2.3843,2.3867,2.3869,2.389,2.3894,2.3903,2.3924,2.3918,2.3937,2.3955,2.394,2.3969,2.3973,2.3991,2.3995,2.4018,2.3999,2.4014,2.4018,2.4023,2.403,2.3912,2.4021,2.402,2.402,2.402,2.402,0,2.3956,2.3955,2.3975,2.3987,2.4004,2.3979,2.3987,2.4003,2.4029,2.4035,2.4051,2.4079,2.41,2.4094,2.4114,2.4134,2.4123,2.414,2.4139,2.414,2.4045,2.4035,2.4148,2.4148,2.4148,2.4148,2.4148,2.4148,2.4016,2.4056,2.4048,2.409,2.409,2.4117,2.4125,2.4133,2.4138,2.4171,2.4188,2.4184,2.4186,2.4205,2.4224,2.4222,2.4232,2.4253,2.4247,2.4159,2.4146,2.4134,2.4124,2.4255,2.4255,2.434,2.4341,2.4341]},{"header":{"parameterUnit":"m.s-1","parameterCategory":1,"la1":30.2991,"la2":30.254,"lo1":-89.0895,"lo2":-89.0444,"dy":0.0017,"dx":0.0017,"nx":28,"ny":28,"refTime":"2025-07-11T03:00:00:Z","depth":0,"parameterNumber":3,"parameterNumberName":"V-component_of_WINDS"},"data":[0,0,0,0,0,0,0,0,0,0,0,0,0,0,0,0,0,0,0,0,0,0,0,0,0,0,0,0,0,0,0,0,0,0,0,0,0,0,0,0,0,0,0,0,0,0,0,0,0,0,0,0,0,0,0,0,0,0,-1.5395,-1.5396,0,-1.5425,-1.5426,-1.5426,-1.543,-1.543,-1.543,-1.5429,-1.5458,-1.5459,-1.546,0,0,0,0,0,0,0,0,0,0,0,0,0,-1.5338,-1.5339,-1.5395,-1.5396,-1.5396,-1.5425,-1.5426,-1.5426,-1.543,-1.543,-1.5429,-1.5429,-1.5458,-1.5459,-1.546,0,0,0,0,0,0,0,0,0,0,0,0,0,-1.5365,-1.5339,-1.5395,-1.5402,-1.5403,-1.5425,-1.5426,-1.5426,-1.543,-1.543,-1.5429,-1.5429,-1.5457,-1.5459,-1.546,-1.5478,0,0,-1.5465,-1.5466,0,0,0,0,0,0,0,0,-1.5363,-1.5367,-1.54,-1.5401,-1.5402,-1.5424,-1.5416,-1.5444,-1.543,-1.542,-1.5429,-1.5429,-1.5447,-1.5449,-1.5456,-1.5479,-1.5481,-1.5465,-1.5466,-1.5467,-1.5467,0,0,0,0,0,0,0,-1.5362,-1.5366,-1.5407,-1.5401,-1.5402,-1.5402,-1.5405,-1.5421,-1.5435,-1.5421,-1.5421,-1.5425,-1.5447,-1.5454,-1.5456,-1.5481,-1.5465,-1.5466,-1.5467,-1.5468,-1.5519,-1.5519,0,0,0,0,0,0,-1.5359,-1.5364,-1.5406,-1.5408,-1.5382,-1.5403,-1.5407,-1.5417,-1.5435,-1.5437,-1.5425,-1.5425,-1.5452,-1.5455,-1.5457,-1.5478,-1.5467,-1.5468,-1.5469,-1.5518,-1.5519,-1.5519,0,0,0,0,0,0,-1.5358,-1.5363,-1.5405,-1.5386,-1.5392,-1.5405,-1.5416,-1.5418,-1.5425,-1.5438,-1.544,-1.543,-1.5451,-1.5455,-1.5473,-1.5479,-1.5469,-1.547,-1.5518,-1.5518,-1.5519,-1.552,0,0,0,0,0,0,-1.5356,-1.5362,-1.537,-1.5386,-1.5393,-1.5421,-1.5417,-1.5419,-1.5428,-1.5428,-1.5443,-1.5445,-1.5451,-1.547,-1.5474,-1.5481,-1.5471,-1.5517,-1.5518,-1.5519,-1.552,-1.5521,-1.5522,0,0,0,0,0,-1.5354,-1.5369,-1.5371,-1.5376,-1.5403,-1.5421,-1.5425,-1.5432,-1.5428,-1.5436,-1.5444,-1.5445,-1.5478,-1.5472,-1.5476,-1.5484,-1.5517,-1.5518,-1.5519,-1.5519,-1.5521,-1.5522,0,0,0,0,0,0,-1.5353,-1.5372,-1.5373,-1.5395,-1.5406,-1.5422,-1.5432,-1.5434,-1.5446,-1.5445,-1.5453,-1.5456,-1.5473,-1.548,-1.5473,-1.5501,-1.5497,-1.5499,-1.5496,-1.5497,-1.5498,-1.5496,-1.5473,0,0,0,0,0,-1.5356,-1.537,-1.5385,-1.5402,-1.5408,-1.5419,-1.5427,-1.5431,-1.5444,-1.5448,-1.5458,-1.5469,-1.5482,-1.549,-1.5502,-1.5521,-1.5523,-1.5528,-1.5529,-1.553,-1.5531,-1.5539,-1.5541,-1.5522,-1.5522,-1.5522,0,0,-1.5361,-1.5372,-1.5381,-1.5402,-1.5412,-1.5425,-1.5423,-1.5438,-1.5447,-1.545,-1.5467,-1.5474,-1.5487,-1.5504,-1.5513,-1.5511,-1.5537,-1.5531,-1.5531,-1.5532,-1.554,-1.5542,-1.5544,-1.5523,-1.5523,-1.5523,0,0,-1.5376,-1.5387,-1.5402,-1.5412,-1.5426,-1.5433,-1.5436,-1.5451,-1.5456,-1.5473,-1.5475,-1.5486,-1.5508,-1.5517,-1.5524,-1.554,-1.5541,-1.5544,-1.555,-1.5558,-1.5559,-1.556,-1.5565,-1.5567,-1.5546,-1.5546,-1.5546,0,-1.5381,-1.5402,-1.5409,-1.5423,-1.5432,-1.5436,-1.5449,-1.5458,-1.5476,-1.5481,-1.5479,-1.5505,-1.5514,-1.5533,-1.5536,-1.5543,-1.5546,-1.5542,-1.5558,-1.556,-1.5561,-1.5566,-1.5567,-1.5546,-1.5546,-1.5546,-1.5546,0,-1.5405,-1.5419,-1.5429,-1.5446,-1.5456,-1.547,-1.5478,-1.5487,-1.549,-1.5496,-1.5512,-1.5523,-1.5537,-1.5541,-1.5545,-1.556,-1.5558,-1.5557,-1.5553,-1.5563,-1.5567,-1.5569,-1.5546,-1.5546,-1.5546,-1.5546,0,0,-1.5422,-1.5442,-1.5445,-1.5452,-1.5467,-1.5478,-1.5491,-1.5505,-1.5511,-1.5523,-1.5533,-1.5551,-1.555,-1.5558,-1.5562,-1.5569,-1.5579,-1.5567,-1.5567,-1.5568,-1.5595,-1.5595,-1.5597,-1.558,-1.558,-1.5581,-1.5593,0,-1.5438,-1.5463,-1.5469,-1.5489,-1.5502,-1.5504,-1.5516,-1.5525,-1.5531,-1.5542,-1.5548,-1.556,-1.5558,-1.5563,-1.557,-1.5576,-1.5584,-1.5576,-1.5588,-1.5589,-1.5584,-1.5599,-1.56,-1.5611,-1.5595,-1.5595,-1.5595,0,-1.5461,-1.5473,-1.5494,-1.5506,-1.5512,-1.5522,-1.5534,-1.5544,-1.5555,-1.5558,-1.5567,-1.5569,-1.5582,-1.5577,-1.5593,-1.5587,-1.5592,-1.5596,-1.5597,-1.5598,-1.5592,-1.5599,-1.5615,-1.5616,-1.5598,-1.5598,-1.5598,0,-1.5469,-1.5491,-1.5506,-1.5512,-1.5527,-1.5533,-1.554,-1.555,-1.5557,-1.5567,-1.5572,-1.5583,-1.5589,-1.5597,-1.5603,-1.5599,-1.5618,-1.5614,-1.562,-1.562,-1.5624,-1.5623,-1.5639,-1.5628,-1.5628,-1.5628,-1.5628,0,-1.5487,-1.5499,-1.5509,-1.5519,-1.5532,-1.5539,-1.5552,-1.5558,-1.5567,-1.5576,-1.5579,-1.5588,-1.5595,-1.5604,-1.5608,-1.5619,-1.5622,-1.5625,-1.5626,-1.5624,-1.5624,-1.5627,-1.5626,-1.5629,-1.5628,-1.5628,-1.5628,0,-1.5498,-1.5506,-1.5522,-1.5535,-1.5538,-1.5547,-1.5557,-1.5566,-1.5571,-1.5583,-1.5586,-1.5594,-1.5605,-1.5611,-1.5625,-1.5627,-1.564,-1.5641,-1.5637,-1.5637,-1.5642,-1.5641,-1.5661,-1.5663,-1.5651,-1.5651,-1.5651,0,-1.5508,-1.5518,-1.5531,-1.5538,-1.5544,-1.5555,-1.5562,-1.5569,-1.5576,-1.5588,-1.5594,-1.5605,-1.5614,-1.5631,-1.5637,-1.5647,-1.5648,-1.5654,-1.5649,-1.5647,-1.5647,-1.5646,-1.5646,-1.5655,-1.5655,-1.5655,-1.5655,0,-1.5525,-1.5528,-1.5539,-1.555,-1.5558,-1.5568,-1.5577,-1.5582,-1.5589,-1.5597,-1.5608,-1.5615,-1.5628,-1.5639,-1.5649,-1.5654,-1.5655,-1.5656,-1.5658,-1.5656,-1.5653,-1.5654,-1.5638,-1.5656,-1.5656,-1.5656,-1.5655,-1.5655,-1.5535,-1.5543,-1.5554,-1.5565,-1.5572,-1.558,-1.5588,-1.5594,-1.5604,-1.5616,-1.5618,-1.563,-1.5638,-1.5652,-1.5657,-1.5665,-1.5664,-1.5667,-1.5668,-1.5668,-1.5668,-1.5652,-1.5667,-1.5667,-1.5667,-1.5667,-1.5667,0,-1.5551,-1.5557,-1.5568,-1.558,-1.5588,-1.5589,-1.5599,-1.5605,-1.5615,-1.5624,-1.5632,-1.5644,-1.5654,-1.5661,-1.567,-1.5675,-1.5676,-1.5678,-1.5677,-1.5678,-1.5669,-1.5666,-1.5677,-1.5677,-1.5677,-1.5677,-1.5677,-1.5677,-1.556,-1.5573,-1.5577,-1.5593,-1.5599,-1.5611,-1.5616,-1.5623,-1.5629,-1.5642,-1.5651,-1.5655,-1.5662,-1.5672,-1.5681,-1.5682,-1.5685,-1.5687,-1.5688,-1.568,-1.5679,-1.5678,-1.5675,-1.5688,-1.5688,-1.5697,-1.5697,-1.5697]}]]